Wind_Speed
36 36 38 36 36 34 35 34 31 28 24 22 21 17 14 13 16 14 13 12 10 9 7 8 8 9 9 11 11 12 10 8
36 36 39 38 37 36 36 35 34 29 27 23 21 19 16 15 15 15 15 14 12 10 9 8 9 10 10 10 11 10 11 10
39 39 40 40 40 38 37 37 36 31 28 27 22 20 18 15 16 15 14 15 15 13 11 9 8 10 11 10 11 10 11 10
41 42 42 44 42 41 38 39 37 35 32 28 24 21 19 17 16 16 16 16 16 16 14 11 10 10 11 9 11 9 12 11
47 45 45 45 47 44 42 41 40 39 35 31 26 24 22 19 18 18 19 17 17 17 16 14 12 13 12 12 11 10 10 11
49 51 50 49 49 50 43 43 42 42 39 35 29 26 25 22 21 21 21 20 18 19 18 15 15 14 14 14 13 12 12 10
50 53 52 50 52 53 52 48 44 44 44 40 34 30 27 25 22 20 24 22 21 20 20 19 17 16 16 16 15 14 14 13
51 53 56 56 55 54 55 54 51 51 49 45 40 34 30 28 24 21 24 24 23 22 21 21 19 18 18 18 17 17 17 16
55 54 58 60 60 58 57 56 54 53 52 50 45 40 33 30 28 23 25 26 24 23 23 22 20 19 20 19 19 19 19 19
63 62 61 63 64 63 60 60 59 57 56 53 50 46 38 32 29 26 27 26 25 25 25 25 23 21 22 22 20 19 19 21
68 67 66 66 66 69 67 62 64 64 60 56 54 51 45 36 31 31 28 28 27 28 28 27 25 23 23 23 23 22 21 20
53 59 62 70 72 72 72 68 66 65 63 60 57 55 51 43 36 33 31 30 29 29 29 29 27 26 25 23 25 24 24 23
51 53 61 60 72 77 75 75 71 71 64 61 59 59 56 49 41 34 33 32 31 30 32 30 28 29 27 26 25 25 26 26
51 45 44 47 45 67 81 79 78 74 71 65 62 63 59 55 45 38 37 35 33 32 32 32 32 31 30 29 26 26 28 27
57 53 49 50 48 47 54 84 81 77 73 69 67 66 64 58 48 43 39 38 36 35 35 34 33 33 34 30 28 28 29 28
50 49 53 53 53 52 50 63 87 81 78 75 71 68 67 61 54 49 42 41 39 40 38 36 35 34 34 31 30 30 28 29
34 38 43 46 48 50 59 59 77 87 83 81 74 67 70 62 57 51 45 44 44 42 42 40 37 36 36 35 33 32 31 30
40 37 39 47 54 58 57 60 60 88 87 83 78 72 69 68 60 56 54 47 47 45 45 44 40 39 39 38 35 35 34 33
39 38 42 52 49 50 54 69 67 82 89 85 80 77 70 73 63 59 55 50 50 49 47 46 43 42 41 41 40 37 36 36
34 34 32 40 50 53 54 55 70 76 92 89 87 82 82 54 65 61 59 58 52 52 51 49 47 45 42 43 43 42 41 40
Wind_Direction
261 264 264 261 259 257 259 262 265 265 267 270 276 274 272 274 279 269 263 260 266 271 281 290 295 298 303 307 306 311 316 314
258 256 260 261 260 258 257 259 261 264 266 264 270 276 267 272 273 274 267 262 260 266 274 279 286 289 295 298 301 304 304 306
255 251 253 256 258 258 257 259 260 261 260 260 265 268 269 262 271 271 268 262 257 259 260 255 270 280 286 291 292 298 295 304
259 255 251 253 255 256 255 256 257 257 258 259 262 261 262 263 265 268 265 260 257 255 250 247 252 265 274 284 286 294 303 306
261 260 257 254 255 253 255 252 255 257 257 256 254 255 256 255 261 264 263 260 257 254 251 248 252 259 263 273 276 285 292 303
266 264 258 255 252 254 248 248 250 255 255 256 251 250 254 252 254 257 258 256 253 253 252 250 249 255 258 264 270 278 284 293
255 258 259 257 254 253 252 245 247 251 254 253 252 250 249 253 250 251 253 253 254 251 251 253 253 250 255 261 262 271 276 285
261 261 255 253 251 250 250 251 245 250 253 253 252 249 248 249 252 249 247 248 252 256 256 254 257 257 253 256 261 265 271 279
266 257 255 258 251 247 248 248 249 246 249 252 252 250 243 244 242 245 245 247 244 252 256 256 256 257 258 256 260 263 265 268
265 259 254 251 250 247 242 242 244 247 246 247 250 250 246 243 241 242 243 244 245 246 250 254 254 254 255 259 261 264 267 269
263 258 253 246 246 246 245 237 239 241 242 241 245 248 246 242 241 241 241 239 245 247 249 252 252 253 256 256 260 263 263 267
273 265 255 245 239 239 241 242 237 238 237 236 237 244 246 241 238 239 239 239 241 248 251 252 253 254 255 258 260 263 266 267
282 276 268 257 236 233 234 236 235 236 234 235 230 239 242 243 236 233 234 240 241 241 248 251 253 255 257 258 258 261 266 269
285 279 273 260 252 240 229 229 231 230 234 231 231 233 238 241 237 230 230 237 239 241 244 249 250 254 254 255 259 259 259 263
280 274 271 265 262 258 248 228 225 227 230 234 228 228 232 236 235 232 229 231 236 239 241 245 251 253 255 255 256 258 261 262
286 272 269 260 263 259 251 240 223 221 223 228 229 228 224 230 231 232 231 229 230 238 239 242 245 253 254 255 255 256 258 262
301 287 273 256 260 258 249 249 230 219 218 223 226 228 228 226 229 231 232 230 230 233 238 241 244 248 250 253 255 258 259 258
306 289 277 260 260 261 249 245 237 224 215 217 221 222 229 224 227 226 231 234 234 232 235 238 241 244 249 254 255 259 262 265
311 296 295 272 264 256 252 241 231 226 212 214 217 219 223 225 222 225 226 230 233 235 236 238 241 243 249 254 257 259 264 267
315 303 309 281 272 269 251 242 228 217 211 210 214 215 221 233 213 224 226 229 232 234 235 237 239 243 244 253 258 262 264 267
Height
5826 5826 5827 5829 5830 5831 5832 5833 5834 5835 5836 5837 5837 5836 5835 5834 5834 5833 5833 5834 5834 5834 5833 5831 5830 5828 5826 5825 5823 5822 5822 5821
5818 5819 5819 5821 5823 5824 5824 5826 5827 5829 5831 5832 5832 5833 5832 5831 5830 5830 5830 5830 5831 5831 5830 5829 5828 5826 5825 5823 5822 5821 5819 5820
5806 5809 5810 5812 5814 5817 5818 5819 5820 5822 5824 5825 5827 5827 5828 5827 5827 5826 5826 5827 5827 5827 5827 5826 5826 5824 5823 5821 5821 5819 5818 5816
5800 5800 5801 5802 5805 5807 5810 5811 5812 5814 5816 5819 5821 5820 5822 5823 5822 5823 5822 5822 5823 5823 5824 5823 5823 5822 5821 5819 5819 5817 5817 5815
5791 5794 5794 5796 5795 5798 5801 5803 5804 5806 5808 5811 5814 5815 5816 5817 5818 5818 5818 5818 5818 5818 5819 5819 5819 5819 5818 5817 5816 5815 5815 5814
5781 5781 5785 5786 5786 5788 5792 5793 5795 5797 5800 5802 5806 5808 5809 5811 5812 5813 5814 5813 5813 5814 5814 5815 5815 5815 5815 5815 5814 5813 5813 5813
5769 5768 5771 5774 5776 5777 5780 5785 5787 5788 5790 5793 5797 5800 5802 5803 5805 5807 5809 5809 5809 5809 5809 5810 5811 5811 5811 5811 5811 5811 5810 5810
5760 5760 5757 5756 5762 5764 5767 5771 5777 5778 5780 5784 5787 5791 5795 5797 5799 5801 5803 5803 5804 5805 5805 5805 5807 5808 5807 5807 5807 5807 5807 5807
5742 5743 5743 5745 5746 5750 5754 5757 5762 5766 5770 5773 5778 5781 5786 5789 5792 5795 5797 5798 5798 5800 5801 5801 5802 5803 5803 5802 5803 5802 5803 5803
5722 5722 5726 5726 5729 5734 5738 5743 5749 5754 5757 5763 5768 5771 5777 5781 5784 5787 5789 5792 5793 5794 5794 5795 5796 5797 5798 5798 5798 5798 5798 5798
5698 5698 5702 5707 5710 5713 5721 5727 5732 5740 5742 5750 5756 5759 5766 5771 5776 5778 5781 5784 5785 5787 5788 5790 5791 5792 5792 5793 5793 5794 5793 5793
5676 5674 5675 5680 5686 5690 5699 5712 5717 5723 5728 5735 5743 5748 5753 5760 5766 5770 5773 5776 5779 5781 5783 5784 5785 5786 5786 5788 5788 5789 5789 5788
5656 5658 5653 5653 5660 5667 5676 5688 5699 5705 5715 5721 5726 5735 5740 5749 5755 5760 5764 5768 5770 5772 5774 5777 5779 5780 5781 5782 5783 5783 5784 5783
5642 5640 5638 5635 5638 5643 5651 5662 5678 5688 5698 5706 5714 5720 5729 5735 5744 5750 5754 5758 5762 5765 5766 5769 5771 5773 5775 5774 5776 5778 5778 5779
5624 5624 5623 5622 5623 5627 5630 5639 5653 5671 5683 5695 5703 5706 5714 5724 5733 5738 5744 5748 5752 5756 5759 5760 5764 5765 5768 5769 5768 5770 5770 5772
5604 5603 5605 5604 5606 5610 5614 5619 5632 5650 5665 5676 5688 5695 5697 5710 5719 5725 5733 5739 5743 5746 5750 5752 5753 5758 5760 5762 5760 5761 5763 5764
5591 5588 5589 5588 5589 5591 5596 5604 5614 5628 5643 5657 5671 5685 5687 5694 5706 5714 5722 5727 5732 5736 5740 5744 5746 5749 5751 5753 5753 5754 5756 5757
5581 5574 5571 5571 5570 5571 5576 5584 5594 5602 5624 5639 5654 5668 5674 5679 5691 5700 5709 5715 5720 5726 5730 5733 5736 5739 5743 5746 5746 5747 5748 5750
5571 5565 5558 5550 5546 5548 5552 5560 5571 5584 5607 5625 5636 5649 5656 5653 5675 5686 5697 5704 5709 5714 5719 5723 5726 5730 5734 5737 5739 5740 5740 5741
5562 5554 5546 5533 5528 5526 5527 5534 5547 5561 5587 5606 5612 5630 5644 5631 5655 5674 5683 5690 5696 5702 5708 5712 5715 5719 5723 5728 5730 5731 5731 5731